Time_in_sec,gx,gy,gz
1326899980.92149472,-0.01647423,0.00287900,-0.99986015
1326899980.96952486,-0.01623636,0.00270906,-0.99986451
1326899981.02069211,-0.01635159,0.00277700,-0.99986245
1326899981.06861448,-0.01640891,0.00305223,-0.99986071
1326899981.12458611,-0.01636778,0.00301614,-0.99986149
1326899981.16877270,-0.01634666,0.00321901,-0.99986120
1326899981.22152877,-0.01570077,0.00320455,-0.99987160
1326899981.26950836,-0.01570363,0.00299374,-0.99987221
1326899981.31825566,-0.01575692,0.00299725,-0.99987136
1326899981.36954403,-0.01568037,0.00309300,-0.99987227
1326899981.42063308,-0.01571447,0.00317323,-0.99987148
1326899981.46964264,-0.01551709,0.00313262,-0.99987470
1326899981.51752138,-0.01547142,0.00313461,-0.99987540
1326899981.56865406,-0.01558610,0.00334866,-0.99987292
1326899981.62065482,-0.01559621,0.00319952,-0.99987325
1326899981.66864038,-0.01583770,0.00317699,-0.99986953
1326899981.72056603,-0.01589581,0.00322498,-0.99986845
1326899981.76954246,-0.01610491,0.00312510,-0.99986542
1326899981.82149720,-0.01604858,0.00316172,-0.99986621
1326899981.86868811,-0.01612464,0.00311949,-0.99986512
1326899981.92157292,-0.01606830,0.00296575,-0.99986650
1326899981.97196412,-0.01632802,0.00304582,-0.99986205
1326899982.02274728,-0.01642006,0.00308497,-0.99986042
1326899982.06953192,-0.01647863,0.00293411,-0.99985991
1326899982.11738038,-0.01654576,0.00293321,-0.99985881
1326899982.16960073,-0.01643766,0.00314505,-0.99985995
1326899982.22129989,-0.01642095,0.00283237,-0.99986116
1326899982.27200675,-0.01653381,0.00299595,-0.99985882
1326899982.31759143,-0.01669701,0.00300340,-0.99985608
1326899982.37091899,-0.01664448,0.00288131,-0.99985732
1326899982.41752005,-0.01625147,0.00327610,-0.99986257
1326899982.46858144,-0.01544856,0.00306627,-0.99987596
1326899982.51754284,-0.01525906,0.00312361,-0.99987869
1326899982.56959915,-0.01544933,0.00328012,-0.99987527
1326899982.62157035,-0.01570736,0.00307794,-0.99987189
1326899982.66859674,-0.01560290,0.00339078,-0.99987252
1326899982.71714091,-0.01542669,0.00364686,-0.99987435
1326899982.76853848,-0.01565217,0.00371762,-0.99987059
1326899982.82165384,-0.01574261,0.00375448,-0.99986903
1326899982.86873055,-0.01572277,0.00392937,-0.99986867
1326899982.92061901,-0.01582091,0.00420649,-0.99986599
1326899982.96956992,-0.01640512,0.00390589,-0.99985780
1326899983.02097416,-0.01639460,0.00395423,-0.99985778
1326899983.06953168,-0.01636742,0.00413313,-0.99985750
1326899983.12151456,-0.01644840,0.00414876,-0.99985611
1326899983.17153788,-0.01652560,0.00437603,-0.99985387
1326899983.22165227,-0.01630138,0.00367061,-0.99986039
1326899983.26959586,-0.01609975,0.00369471,-0.99986356
1326899983.32055521,-0.01590897,0.00372657,-0.99986650
1326899983.36955857,-0.01570984,0.00380349,-0.99986936
1326899983.42148042,-0.01552537,0.00387136,-0.99987198
1326899983.47114873,-0.01485218,0.00391366,-0.99988204
1326899983.52053547,-0.01489906,0.00408744,-0.99988065
1326899983.56861901,-0.01495910,0.00414516,-0.99987951
1326899983.62082458,-0.01480425,0.00422225,-0.99988150
1326899983.66885448,-0.01455525,0.00400549,-0.99988604
1326899983.72155499,-0.01446964,0.00404338,-0.99988713
1326899983.76954746,-0.01451573,0.00419815,-0.99988583
1326899983.81773210,-0.01456073,0.00443869,-0.99988413
1326899983.86855197,-0.01472589,0.00460285,-0.99988097
1326899983.92446470,-0.01463586,0.00471015,-0.99988180
1326899983.96954322,-0.01419587,0.00480273,-0.99988770
1326899984.02068973,-0.01383144,0.00499426,-0.99989187
1326899984.06957626,-0.01390304,0.00500567,-0.99989082
1326899984.12151480,-0.01393851,0.00498945,-0.99989041
1326899984.16950488,-0.01404747,0.00516852,-0.99988797
1326899984.22212911,-0.01384492,0.00503743,-0.99989147
1326899984.26965165,-0.01357591,0.00502491,-0.99989522
1326899984.32062054,-0.01359359,0.00484710,-0.99989585
1326899984.36957550,-0.01375077,0.00512163,-0.99989234
1326899984.42061329,-0.01303957,0.00497500,-0.99990260
1326899984.46952176,-0.01299642,0.00485224,-0.99990377
1326899984.52062678,-0.01296476,0.00504436,-0.99990323
1326899984.56950593,-0.01316829,0.00503918,-0.99990060
1326899984.62145209,-0.01332989,0.00509477,-0.99989817
1326899984.66962194,-0.01340890,0.00516389,-0.99989676
1326899984.71752667,-0.01329045,0.00472074,-0.99990053
1326899984.76856470,-0.01346654,0.00474447,-0.99989807
1326899984.82155514,-0.01356397,0.00481710,-0.99989640
1326899984.86942363,-0.01378659,0.00503858,-0.99989227
1326899984.92143464,-0.01398226,0.00509097,-0.99988928
1326899984.96951652,-0.01417553,0.00480283,-0.99988799
1326899985.01752782,-0.01405059,0.00483174,-0.99988961
1326899985.06954122,-0.01409281,0.00497447,-0.99988832
1326899985.11750078,-0.01407216,0.00521219,-0.99988740
1326899985.16956854,-0.01402409,0.00523971,-0.99988793
1326899985.21795344,-0.01386274,0.00508515,-0.99989098
1326899985.26928687,-0.01393712,0.00500616,-0.99989034
1326899985.31742048,-0.01380338,0.00495623,-0.99989245
1326899985.36950541,-0.01386057,0.00499498,-0.99989146
1326899985.41714001,-0.01326178,0.00455732,-0.99990167
1326899985.46955204,-0.01287595,0.00467527,-0.99990617
1326899985.52150106,-0.01283194,0.00487774,-0.99990577
1326899985.56965065,-0.01280921,0.00472052,-0.99990682
1326899985.62068892,-0.01282499,0.00478250,-0.99990632
1326899985.66857147,-0.01220306,0.00429543,-0.99991631
1326899985.72153831,-0.01224612,0.00431555,-0.99991570
1326899985.76950359,-0.01234541,0.00406511,-0.99991553
1326899985.82154655,-0.01208874,0.00424315,-0.99991793
1326899985.86863065,-0.01205336,0.00432655,-0.99991800
1326899985.92150402,-0.01180071,0.00438198,-0.99992077
1326899985.96966982,-0.01175000,0.00440609,-0.99992126
1326899986.02162290,-0.01176422,0.00413860,-0.99992223
1326899986.06852460,-0.01179480,0.00404473,-0.99992226
1326899986.12114167,-0.01176128,0.00428697,-0.99992164
1326899986.16954589,-0.01162025,0.00436380,-0.99992296
1326899986.22164392,-0.01095278,0.00416245,-0.99993135
1326899986.26967597,-0.01114643,0.00415914,-0.99992923
1326899986.32151413,-0.01098564,0.00410700,-0.99993122
1326899986.36959887,-0.01067388,0.00413245,-0.99993449
1326899986.42069650,-0.01034887,0.00453362,-0.99993617
1326899986.46952200,-0.01030659,0.00445653,-0.99993695
1326899986.52065730,-0.01031094,0.00447134,-0.99993684
1326899986.56948924,-0.01035825,0.00444375,-0.99993648
1326899986.62169623,-0.01025247,0.00453755,-0.99993715
1326899986.66865563,-0.01025163,0.00472049,-0.99993631
1326899986.72075748,-0.01017450,0.00476131,-0.99993690
1326899986.76964998,-0.01001731,0.00481967,-0.99993821
1326899986.82110548,-0.00997288,0.00483915,-0.99993856
1326899986.86876774,-0.01000895,0.00489784,-0.99993791
1326899986.92191958,-0.00986627,0.00497074,-0.99993897
1326899986.96950555,-0.01028038,0.00493197,-0.99993499
1326899987.02054596,-0.01019223,0.00509841,-0.99993506
1326899987.06863022,-0.01032902,0.00510827,-0.99993361
1326899987.12162447,-0.01023259,0.00519942,-0.99993413
1326899987.16961861,-0.01002652,0.00522821,-0.99993607
1326899987.22162390,-0.01051366,0.00509861,-0.99993173
1326899987.26951027,-0.01065283,0.00509069,-0.99993030
1326899987.31764221,-0.01070877,0.00493990,-0.99993046
1326899987.36951828,-0.01049932,0.00483494,-0.99993319
1326899987.42060494,-0.01054101,0.00505019,-0.99993169
1326899987.46951294,-0.01047449,0.00496784,-0.99993280
1326899987.52150822,-0.01073320,0.00519232,-0.99992892
1326899987.56952333,-0.01081257,0.00531213,-0.99992743
1326899987.61744881,-0.01088153,0.00529864,-0.99992676
1326899987.66953087,-0.01081501,0.00483442,-0.99992983
1326899987.71768951,-0.01071001,0.00485880,-0.99993084
1326899987.76949239,-0.01059678,0.00472440,-0.99993269
1326899987.82056665,-0.01090850,0.00462388,-0.99992981
1326899987.86861897,-0.01084136,0.00462676,-0.99993053
1326899987.91761374,-0.01059422,0.00476177,-0.99993254
1326899987.96862245,-0.01101622,0.00449710,-0.99992921
1326899988.02198410,-0.01101391,0.00480324,-0.99992781
1326899988.06989360,-0.01110542,0.00491242,-0.99992627
1326899988.12061977,-0.01126524,0.00498044,-0.99992414
1326899988.16950440,-0.01131288,0.00525626,-0.99992219
1326899988.22156262,-0.01142580,0.00472254,-0.99992357
1326899988.26864171,-0.01143639,0.00472716,-0.99992343
1326899988.31759286,-0.01146144,0.00493144,-0.99992216
1326899988.36994815,-0.01151812,0.00491914,-0.99992156
1326899988.41719055,-0.01141697,0.00493063,-0.99992267
1326899988.46952033,-0.01141896,0.00502136,-0.99992219
1326899988.52064228,-0.01118413,0.00520683,-0.99992390
1326899988.56951714,-0.01122882,0.00521993,-0.99992333
1326899988.61756158,-0.01114269,0.00521647,-0.99992431
1326899988.66951156,-0.01094874,0.00526146,-0.99992622
1326899988.72360826,-0.01074374,0.00455084,-0.99993193
1326899988.76966143,-0.01078384,0.00443495,-0.99993202
1326899988.82063890,-0.01089972,0.00461478,-0.99992995
1326899988.86954021,-0.01124709,0.00471500,-0.99992563
1326899988.92065692,-0.01118584,0.00461384,-0.99992679
1326899988.96950507,-0.01180800,0.00445899,-0.99992034
1326899989.00950432,-0.01189008,0.00472401,-0.99991815
1326899989.06964946,-0.01185953,0.00482068,-0.99991805
1326899989.12152934,-0.01192211,0.00493606,-0.99991675
1326899989.16859007,-0.01185337,0.00505365,-0.99991698
1326899989.22158217,-0.01189270,0.00520504,-0.99991573
1326899989.26955748,-0.01188407,0.00514071,-0.99991617
1326899989.32062912,-0.01195401,0.00502088,-0.99991594
1326899989.36950445,-0.01186620,0.00525298,-0.99991580
1326899989.42152309,-0.01176354,0.00517334,-0.99991742
1326899989.46866417,-0.01197309,0.00518115,-0.99991490
1326899989.52716875,-0.01202448,0.00530183,-0.99991365
1326899989.56858015,-0.01180704,0.00516634,-0.99991695
1326899989.62169886,-0.01177277,0.00554351,-0.99991533
1326899989.66954017,-0.01186134,0.00562722,-0.99991382
1326899989.72063971,-0.01192281,0.00574642,-0.99991241
1326899989.76962256,-0.01192024,0.00584561,-0.99991186
1326899989.82062411,-0.01195811,0.00578589,-0.99991176
1326899989.86965442,-0.01207464,0.00562472,-0.99991128
1326899989.92151713,-0.01220663,0.00588358,-0.99990819
1326899989.96864772,-0.01228440,0.00515288,-0.99991127
1326899990.02156472,-0.01221750,0.00550306,-0.99991022
1326899990.06865001,-0.01229994,0.00566524,-0.99990830
1326899990.11761665,-0.01239451,0.00580021,-0.99990636
1326899990.16950536,-0.01239535,0.00576472,-0.99990656
1326899990.22060943,-0.01191404,0.00558223,-0.99991344
1326899990.26964664,-0.01173214,0.00584584,-0.99991409
1326899990.31785083,-0.01184304,0.00589066,-0.99991252
1326899990.36971378,-0.01157817,0.00608621,-0.99991445
1326899990.42227197,-0.01148070,0.00596285,-0.99991632
1326899990.46951222,-0.01202141,0.00607420,-0.99990929
1326899990.52161098,-0.01190020,0.00602636,-0.99991103
1326899990.56953120,-0.01194009,0.00617077,-0.99990967
1326899990.61750841,-0.01181459,0.00631650,-0.99991025
1326899990.66862226,-0.01180166,0.00612043,-0.99991163
1326899990.71760893,-0.01189266,0.00560097,-0.99991359
1326899990.76960015,-0.01182019,0.00539489,-0.99991559
1326899990.81767368,-0.01212373,0.00551396,-0.99991130
1326899990.86852360,-0.01203704,0.00579928,-0.99991074
1326899990.91799951,-0.01198962,0.00581794,-0.99991120
1326899990.96951675,-0.01156703,0.00575344,-0.99991655
1326899991.01731634,-0.01153971,0.00567406,-0.99991732
1326899991.06934810,-0.01151293,0.00567574,-0.99991762
1326899991.11734009,-0.01140942,0.00576654,-0.99991828
1326899991.16950893,-0.01162175,0.00564691,-0.99991652
1326899991.21752906,-0.01171326,0.00514492,-0.99991816
1326899991.26920319,-0.01165904,0.00515185,-0.99991876
1326899991.31761813,-0.01172288,0.00527010,-0.99991740
1326899991.36950469,-0.01158063,0.00535034,-0.99991863
1326899991.41751504,-0.01129336,0.00523520,-0.99992252
1326899991.46854901,-0.01128268,0.00527588,-0.99992243
1326899991.52152681,-0.01110135,0.00543490,-0.99992361
1326899991.56863689,-0.01093085,0.00538472,-0.99992576
1326899991.62111020,-0.01075821,0.00565624,-0.99992613
1326899991.66905427,-0.01109756,0.00550282,-0.99992328
1326899991.72164631,-0.01096405,0.00568936,-0.99992371
1326899991.76950622,-0.01111685,0.00568868,-0.99992202
1326899991.82055187,-0.01114494,0.00595742,-0.99992015
1326899991.86854100,-0.01111975,0.00606470,-0.99991978
1326899991.92154717,-0.01102463,0.00590389,-0.99992180
1326899991.96966004,-0.01136297,0.00553238,-0.99992013
1326899992.02054358,-0.01144194,0.00563233,-0.99991868
1326899992.06867480,-0.01156669,0.00579209,-0.99991633
1326899992.12085319,-0.01158061,0.00596027,-0.99991518
1326899992.16951609,-0.01171346,0.00604558,-0.99991312
1326899992.22154093,-0.01226373,0.00586262,-0.99990761
1326899992.26854348,-0.01225974,0.00575192,-0.99990830
1326899992.32551622,-0.01227625,0.00591896,-0.99990713
1326899992.36878896,-0.01223710,0.00590273,-0.99990770
1326899992.42050290,-0.01198109,0.00569671,-0.99991200
1326899992.46852779,-0.01175054,0.00523786,-0.99991724
1326899992.52141953,-0.01189116,0.00541923,-0.99991461
1326899992.56950498,-0.01194358,0.00548533,-0.99991363
1326899992.62153149,-0.01186952,0.00552287,-0.99991430
1326899992.66849446,-0.01183141,0.00553053,-0.99991471
1326899992.71801925,-0.01173451,0.00486771,-0.99991930
1326899992.76829886,-0.01168951,0.00482100,-0.99992005
1326899992.82053232,-0.01176401,0.00507500,-0.99991792
1326899992.86950159,-0.01206133,0.00517244,-0.99991388
1326899992.92067766,-0.01180062,0.00511323,-0.99991730
1326899992.96950722,-0.01180614,0.00484328,-0.99991858
1326899993.02063966,-0.01186152,0.00508071,-0.99991674
1326899993.06159306,-0.01175632,0.00516671,-0.99991754
1326899993.12149763,-0.01182215,0.00526720,-0.99991624
1326899993.16854286,-0.01159834,0.00538421,-0.99991824
1326899993.22050047,-0.01112881,0.00483614,-0.99992638
1326899993.26955199,-0.01104721,0.00490713,-0.99992694
1326899993.31921887,-0.01119894,0.00490175,-0.99992528
1326899993.36951923,-0.01120096,0.00484191,-0.99992554
1326899993.42063117,-0.01109371,0.00461246,-0.99992782
1326899993.46895719,-0.01119912,0.00479538,-0.99992579
1326899993.52362442,-0.01145390,0.00472507,-0.99992324
1326899993.56861496,-0.01145653,0.00487975,-0.99992246
1326899993.62058377,-0.01157729,0.00493479,-0.99992080
1326899993.66954947,-0.01144551,0.00459906,-0.99992392
1326899993.71757317,-0.01122694,0.00457052,-0.99992653
1326899993.76949191,-0.01131823,0.00464447,-0.99992516
1326899993.81750417,-0.01143446,0.00454777,-0.99992428
1326899993.86852193,-0.01166357,0.00447309,-0.99992197
1326899993.91750574,-0.01221159,0.00440185,-0.99991575
1326899993.96962309,-0.01233364,0.00417429,-0.99991522
1326899994.01778603,-0.01213239,0.00438143,-0.99991680
1326899994.06960917,-0.01203369,0.00430462,-0.99991833
1326899994.12049413,-0.01194029,0.00422239,-0.99991980
1326899994.16950345,-0.01189101,0.00409287,-0.99992092
1326899994.21749949,-0.01235369,0.00374376,-0.99991668
1326899994.26857615,-0.01257196,0.00390855,-0.99991333
1326899994.31763697,-0.01263426,0.00392839,-0.99991247
1326899994.36857343,-0.01246373,0.00380824,-0.99991507
1326899994.41763902,-0.01233308,0.00375450,-0.99991690
1326899994.46950674,-0.01309769,0.00373322,-0.99990725
1326899994.51765037,-0.01316682,0.00401506,-0.99990525
1326899994.56951547,-0.01324010,0.00405834,-0.99990411
1326899994.62121749,-0.01327571,0.00412348,-0.99990337
1326899994.66861701,-0.01323339,0.00416331,-0.99990377
1326899994.72151566,-0.01287375,0.00437741,-0.99990755
1326899994.76857758,-0.01315385,0.00435582,-0.99990400
1326899994.82248497,-0.01321080,0.00423423,-0.99990377
1326899994.86858702,-0.01313590,0.00442747,-0.99990392
1326899994.92163563,-0.01334475,0.00435819,-0.99990146
1326899994.96950698,-0.01337189,0.00459312,-0.99990004
1326899995.02102876,-0.01362616,0.00453269,-0.99989689
1326899995.06855416,-0.01380816,0.00445157,-0.99989475
1326899995.12160540,-0.01379940,0.00468273,-0.99989382
1326899995.16899753,-0.01367211,0.00478583,-0.99989508
1326899995.22055340,-0.01378859,0.00512447,-0.99989180
1326899995.27014303,-0.01370612,0.00520079,-0.99989254
1326899995.32081962,-0.01373132,0.00508222,-0.99989281
1326899995.36950350,-0.01367165,0.00527951,-0.99989260
1326899995.42195916,-0.01352138,0.00538743,-0.99989407
1326899995.46866870,-0.01389897,0.00556012,-0.99988795
1326899995.52377605,-0.01415455,0.00558741,-0.99988421
1326899995.56858778,-0.01427662,0.00571421,-0.99988176
1326899995.62163782,-0.01423324,0.00595923,-0.99988094
1326899995.66867471,-0.01441107,0.00644660,-0.99987537
1326899995.71767759,-0.01446602,0.00652823,-0.99987405
1326899995.76951480,-0.01427200,0.00651443,-0.99987693
1326899995.82138586,-0.01449835,0.00685376,-0.99987140
1326899995.86965489,-0.01443401,0.00705075,-0.99987096
1326899995.92156434,-0.01462839,0.00658457,-0.99987132
1326899995.96951842,-0.01482628,0.00675695,-0.99986725
1326899996.02066636,-0.01493936,0.00667698,-0.99986611
1326899996.07766747,-0.01509242,0.00667576,-0.99986382
1326899996.11754656,-0.01506555,0.00676469,-0.99986362
1326899996.16961670,-0.01499228,0.00676304,-0.99986474
1326899996.21756291,-0.01506169,0.00668526,-0.99986422
1326899996.26957655,-0.01511758,0.00677881,-0.99986274
1326899996.31763911,-0.01518709,0.00660459,-0.99986286
1326899996.36864877,-0.01506426,0.00672039,-0.99986394
1326899996.41755342,-0.01498026,0.00672617,-0.99986517
1326899996.46864367,-0.01531809,0.00647051,-0.99986173
1326899996.52232122,-0.01538072,0.00650805,-0.99986053
1326899996.56950212,-0.01524069,0.00660616,-0.99986203
1326899996.62055969,-0.01516095,0.00679605,-0.99986197
1326899996.66858220,-0.01520998,0.00675591,-0.99986150
1326899996.72102165,-0.01528963,0.00635353,-0.99986292
1326899996.76855969,-0.01518315,0.00632678,-0.99986471
1326899996.81757379,-0.01535990,0.00648493,-0.99986100
1326899996.86952233,-0.01540268,0.00669536,-0.99985895
1326899996.91752791,-0.01549503,0.00622462,-0.99986057
1326899996.96951342,-0.01526767,0.00654602,-0.99986201
1326899997.02129388,-0.01518774,0.00666617,-0.99986244
1326899997.06937313,-0.01527259,0.00682820,-0.99986005
1326899997.11757636,-0.01511594,0.00697488,-0.99986142
1326899997.16953421,-0.01503517,0.00697864,-0.99986261
1326899997.22129726,-0.01422930,0.00736989,-0.99987160
1326899997.26853752,-0.01449700,0.00735575,-0.99986786
1326899997.31999540,-0.01446350,0.00774457,-0.99986541
1326899997.36950111,-0.01457550,0.00764706,-0.99986453
1326899997.41751504,-0.01445764,0.00772474,-0.99986564
1326899997.46955109,-0.01438184,0.00728233,-0.99987006
1326899997.52173185,-0.01455031,0.00721914,-0.99986808
1326899997.56850719,-0.01445524,0.00724929,-0.99986924
1326899997.62109900,-0.01429997,0.00716148,-0.99987210
1326899997.66910005,-0.01450600,0.00639780,-0.99987431
1326899997.72109818,-0.01444623,0.00652638,-0.99987435
1326899997.76950431,-0.01440112,0.00655073,-0.99987484
1326899997.82102489,-0.01434917,0.00677575,-0.99987409
1326899997.86851573,-0.01422276,0.00668300,-0.99987652
1326899997.92150974,-0.01460907,0.00661831,-0.99987138
1326899997.97107935,-0.01459057,0.00662519,-0.99987160
1326899998.02152586,-0.01460913,0.00668834,-0.99987091
1326899998.06899476,-0.01456038,0.00693198,-0.99986996
1326899998.12051296,-0.01459579,0.00708626,-0.99986837
1326899998.16951966,-0.01507166,0.00674228,-0.99986368
1326899998.22071338,-0.01482680,0.00670256,-0.99986761
1326899998.26966310,-0.01463708,0.00646467,-0.99987197
1326899998.31793833,-0.01459109,0.00650129,-0.99987241
1326899998.36963940,-0.01463221,0.00644690,-0.99987216
1326899998.42102170,-0.01431277,0.00583666,-0.99988053
1326899998.46970630,-0.01442977,0.00587618,-0.99987862
1326899998.52104926,-0.01443807,0.00599338,-0.99987780
1326899998.56953621,-0.01452044,0.00599207,-0.99987662
1326899998.62082911,-0.01436648,0.00605839,-0.99987844
1326899998.66882062,-0.01377429,0.00573750,-0.99988867
1326899998.72170615,-0.01351684,0.00590758,-0.99989119
1326899998.76952004,-0.01364616,0.00598853,-0.99988895
1326899998.82068467,-0.01377463,0.00605696,-0.99988678
1326899998.86947799,-0.01377303,0.00600891,-0.99988709
